Location: Montreal
(45.5000°N, 73.5833°W)
Time: 07:51:10
(UTC-04:00)

ISS - Pass Details

Date: 07 October 2017
Orbit: 400 x 408 km, 51.6° (Epoch: 24 October)

Event Time Altitude Azimuth Distance (km) Brightness Sun altitude
Rises 19:04:54 0° 290° (WNW) 2,325 1.6 -8.2°
Reaches altitude 10° 19:07:10 10° 303° (WNW) 1,467 0.0 -8.6°
Maximum altitude 19:10:02 27° 4° (N) 821 -2.3 -9.1°
Enters shadow 19:12:43 11° 63° (ENE) 1,403 -1.6 -9.6°
